TimeCST,TemperatureF,Dew PointF,Humidity,Sea Level PressureIn,VisibilityMPH,Wind Direction,Wind SpeedMPH,Gust SpeedMPH,PrecipitationIn,Events,Conditions,WindDirDegrees,DateUTC
12:54 AM,64.0,59.0,84,29.50,10.0,South,20.7,25.3,N/A,,Partly Cloudy,170,2013-11-17 06:54:00
1:54 AM,66.0,60.1,81,29.49,10.0,South,19.6,26.5,N/A,,Mostly Cloudy,190,2013-11-17 07:54:00
2:54 AM,66.0,60.1,81,29.47,10.0,South,17.3,26.5,N/A,,Clear,190,2013-11-17 08:54:00
3:54 AM,66.0,61.0,84,29.45,10.0,South,17.3,-,N/A,,Clear,180,2013-11-17 09:54:00
4:54 AM,66.0,61.0,84,29.44,10.0,South,15.0,-,N/A,,Clear,180,2013-11-17 10:54:00
5:54 AM,66.0,61.0,84,29.41,10.0,South,12.7,-,N/A,,Scattered Clouds,180,2013-11-17 11:54:00
6:54 AM,66.9,61.0,81,29.39,10.0,South,16.1,23.0,N/A,,Scattered Clouds,180,2013-11-17 12:54:00
7:54 AM,68.0,62.1,81,29.40,10.0,South,16.1,-,N/A,,Scattered Clouds,190,2013-11-17 13:54:00
8:54 AM,71.1,60.1,68,29.40,10.0,SW,23.0,27.6,N/A,,Overcast,220,2013-11-17 14:54:00
9:54 AM,71.1,55.0,57,29.42,10.0,WSW,34.5,47.2,0.00,Rain-Thunderstorm,Light Rain,250,2013-11-17 15:54:00
10:21 AM,73.0,53.1,49,29.45,10.0,WSW,34.5,46.0,0.00,Rain,Light Rain,250,2013-11-17 16:21:00
10:54 AM,71.1,46.0,41,29.48,10.0,West,36.8,48.3,0.00,Rain,Light Rain,260,2013-11-17 16:54:00
11:54 AM,66.0,39.0,37,29.55,10.0,WNW,27.6,47.2,0.00,,Clear,290,2013-11-17 17:54:00
12:54 PM,63.0,37.0,38,29.59,10.0,West,25.3,39.1,N/A,,Clear,270,2013-11-17 18:54:00
1:54 PM,64.9,36.0,34,29.60,10.0,West,18.4,31.1,N/A,,Clear,260,2013-11-17 19:54:00
2:54 PM,66.9,30.0,25,29.61,10.0,West,26.5,40.3,N/A,,Clear,270,2013-11-17 20:54:00
3:54 PM,66.9,21.0,17,29.65,10.0,West,25.3,43.7,N/A,,Clear,270,2013-11-17 21:54:00
4:54 PM,62.1,19.0,19,29.74,10.0,WNW,20.7,36.8,0.00,Rain,Light Rain,290,2013-11-17 22:54:00
5:54 PM,57.9,21.9,25,29.80,10.0,WNW,9.2,-,0.00,Rain,Light Rain,290,2013-11-17 23:54:00
6:54 PM,57.0,23.0,27,29.84,10.0,WNW,12.7,-,0.00,,Clear,290,2013-11-18 00:54:00
7:54 PM,54.0,28.0,37,29.89,10.0,NNW,13.8,-,N/A,,Clear,340,2013-11-18 01:54:00
8:54 PM,51.1,36.0,56,29.93,10.0,NW,9.2,-,N/A,,Clear,310,2013-11-18 02:54:00
9:54 PM,48.9,36.0,61,29.96,10.0,NW,6.9,-,N/A,,Clear,310,2013-11-18 03:54:00
10:54 PM,46.0,37.0,71,29.99,10.0,NW,9.2,-,N/A,,Clear,320,2013-11-18 04:54:00
11:54 PM,45.0,37.0,74,30.03,10.0,West,6.9,-,N/A,,Clear,280,2013-11-18 05:54:00